Regional Weather Roundup
Issued by NWS Charleston, WV

Home | Current Version | Previous Version | Graphics & Text | Print | Product List | Glossary On
Versions: 1 2 3 4 5 6 7 8 9 10 11 12 13 14 15 16 17 18 19 20 21 22 23 24 25 26 27
000
ASUS41 KRLX 010210
RWRRLX
West Virginia Regional Weather Roundup
National Weather Service Charleston WV
1000 PM EDT FRI OCT 31 2014

Note: "fair" indicates few or no clouds below 12,000 feet with no
significant weather and/or obstructions to visibility.

WVZ003-010300-
Northern Panhandle of West Virginia

CITY           SKY/WX    TMP DP  RH WIND       PRES   REMARKS
WHEELING       LGT RAIN  41  39  93 NE5       29.88S FOG
$$

WVZ009-010300-
Northwest West Virginia

CITY           SKY/WX    TMP DP  RH WIND       PRES   REMARKS
PARKERSBURG    LGT RAIN  43  41  93 CALM      29.91R FOG
$$

WVZ006-010300-
Western West Virginia

CITY           SKY/WX    TMP DP  RH WIND       PRES   REMARKS
HUNTINGTON     LGT RAIN  38  37  97 W7        29.91R
$$

WVZ015-010300-
West Central West Virginia

CITY           SKY/WX    TMP DP  RH WIND       PRES   REMARKS
CHARLESTON     LGT RAIN  43  41  93 CALM      29.87S FOG
$$

WVZ022-031-010300-
North Central West Virginia

CITY           SKY/WX    TMP DP  RH WIND       PRES   REMARKS
CLARKSBURG     LGT RAIN  41  39  93 N5        29.87S
MORGANTOWN     LGT RAIN  43  39  86 N6        29.88S
$$

WVZ025-035-042-045-010300-
Southern West Virginia

CITY           SKY/WX    TMP DP  RH WIND       PRES   REMARKS
BECKLEY        LGT RAIN  37  34  89 N3        29.83S
LOGAN          LGT RAIN  41  39  93 VRB6G12   29.86R
BLUEFIELD      LGT RAIN  37  34  89 NW5       29.82F
LEWISBURG      LGT RAIN  41  37  85 CALM      29.82S
$$

WVZ047-010300-
Northern Mountains of West Virginia

CITY           SKY/WX    TMP DP  RH WIND       PRES   REMARKS
ELKINS         LGT RAIN  38  37  97 NW5       29.85S
$$

WVZ052-010300-
Eastern Panhandle of West Virginia

CITY           SKY/WX    TMP DP  RH WIND       PRES   REMARKS
MARTINSBURG    CLOUDY    50  34  54 CALM      29.87R
PETERSBURG     DRIZZLE   46  43  90 CALM      29.86S
$$



USA.gov is the U.S. government's official web portal to all federal, state and local government web resources and services.